SCP
0 0 0 0 0 0 0 0 0 0 0 0 0 0 0 0 0 0 0 0 0 0
0 0 0 0 0 0 0 0 0 0 0 0 0 0 0 0 0 0 0 0 0 0
0 0 0 0 0 0 0 0 0 0 0 0 0 0 0 0 0 0 0 0 0 0
0 0 0 0 0 0 0 0 0 0 0 0 0 0 0 0 0 0 0 0 0 0
0 0 0 0 0 0 0 0 0 0 0 0 0 0 0 0 0 0 0 0 0 0
0 0 0 0 0 0 0 0 0 0 0 0 0 0 0 0 0 0 0 0 0 0
0 0 0 0 0 0 0 0 0 0 0 0 0 0 0 0 0 0 0 0 0 0
0 0 0 0 0 0 0 0 0 0 0 0 0 0 0 0 0 0 0 0 0 0
0 0 0 0 0 0 0 0 0 0 0 0 0 0 0 0 0 0 0 0 0 0
0 0 0 0 0 0 0 0 0 0 0 0 0 0 0 0 0 0 0 0 0 0
0 0 0 0 0 0 0 0 0 0 0 0 0 0 0 0 0 0 0 0 0 0
0 0 0 0 0 0 0 0 0 0 0 0 0 0 0 0 0 0 0 0 0 0
0 0 0 0 0 0 0 0 0 0 0 0 0 0 0 0 0 0 0 0 0 0
0 0 0 0 0 0 0 0 0 0 0 0 0 0 0 0 0 0 0 0 0 0
Wind_Speed_500mb
42 42 41 41 41 42 43 43 42 40 39 39 37 35 35 38 42 45 49 51 51 48
27 28 28 29 29 29 29 30 31 32 34 36 37 37 36 37 40 42 45 50 52 54
16 14 14 14 15 16 18 21 23 23 24 27 30 33 36 38 38 40 42 45 49 53
12 11 10 10 11 13 15 17 20 22 23 25 27 29 33 36 38 40 41 42 46 50
6 7 9 11 14 16 18 21 24 25 26 28 29 31 33 33 33 38 41 43 46 47
9 12 16 19 22 26 28 30 31 33 35 35 32 32 29 28 33 35 42 44 45 46
17 20 22 25 28 32 35 38 39 39 40 39 34 36 38 34 38 40 42 45 45 47
23 26 28 29 31 33 35 38 40 42 41 40 41 34 34 35 38 42 44 48 49 49
25 29 32 34 35 36 37 37 38 40 44 43 41 46 40 40 43 43 45 48 50 52
26 29 31 34 35 37 38 39 40 40 41 40 41 44 42 44 48 50 50 49 49 51
24 27 30 33 35 35 36 37 39 38 39 40 40 48 46 44 46 50 50 50 50 52
16 19 21 23 27 30 32 32 34 35 38 40 41 45 49 48 45 49 51 52 53 55
17 20 20 22 24 26 27 28 28 28 30 35 39 42 46 50 50 50 49 49 54 57
12 13 16 19 22 22 20 19 21 25 27 29 36 37 44 48 48 50 51 50 48 52
Wind_Direction_500mb
242 243 248 252 257 262 264 263 261 259 258 258 257 258 262 265 266 265 263 262 261 263
232 233 237 245 250 253 258 263 266 266 261 258 257 258 261 264 265 268 266 265 264 263
184 190 200 215 234 248 259 268 273 274 272 266 261 259 260 263 266 268 268 268 267 264
192 200 210 225 240 253 263 271 277 279 277 276 272 267 264 264 265 270 273 271 270 268
203 233 253 265 272 275 274 276 278 279 280 279 279 281 279 274 272 277 279 281 279 278
259 271 279 283 286 288 289 287 285 283 277 273 273 276 281 281 281 279 276 279 278 280
279 279 281 283 284 286 288 290 290 291 291 289 280 272 276 284 287 284 280 281 279 279
289 291 291 291 291 291 293 293 293 293 292 292 293 299 302 298 292 286 278 282 277 277
282 285 288 291 292 294 295 295 295 294 295 295 294 288 284 286 285 285 284 283 280 279
289 291 293 293 294 293 293 296 298 298 297 294 294 292 292 287 282 283 284 287 287 285
284 285 286 288 290 289 292 294 294 294 292 291 291 293 290 288 279 279 280 283 288 289
276 277 282 287 291 294 296 297 295 294 295 292 291 288 287 285 281 280 280 282 283 282
300 304 310 311 310 311 309 308 306 305 308 307 304 300 297 291 286 286 284 281 281 278
304 312 312 315 315 317 316 315 311 313 307 310 307 308 301 300 302 298 297 294 289 285
Wind_Speed_850mb
42 42 41 41 41 42 43 43 42 40 39 39 37 35 35 38 42 45 49 51 51 48
27 28 28 29 29 29 29 30 31 32 34 36 37 37 36 37 40 42 45 50 52 54
16 14 14 14 15 16 18 21 23 23 24 27 30 33 36 38 38 40 42 45 49 53
12 11 10 10 11 13 15 17 20 22 23 25 27 29 33 36 38 40 41 42 46 50
6 7 9 11 14 16 18 21 24 25 26 28 29 31 33 33 33 38 41 43 46 47
9 12 16 19 22 26 28 30 31 33 35 35 32 32 29 28 33 35 42 44 45 46
17 20 22 25 28 32 35 38 39 39 40 39 34 36 38 34 38 40 42 45 45 47
23 26 28 29 31 33 35 38 40 42 41 40 41 34 34 35 38 42 44 48 49 49
25 29 32 34 35 36 37 37 38 40 44 43 41 46 40 40 43 43 45 48 50 52
26 29 31 34 35 37 38 39 40 40 41 40 41 44 42 44 48 50 50 49 49 51
24 27 30 33 35 35 36 37 39 38 39 40 40 48 46 44 46 50 50 50 50 52
16 19 21 23 27 30 32 32 34 35 38 40 41 45 49 48 45 49 51 52 53 55
17 20 20 22 24 26 27 28 28 28 30 35 39 42 46 50 50 50 49 49 54 57
12 13 16 19 22 22 20 19 21 25 27 29 36 37 44 48 48 50 51 50 48 52
Wind_Direction_850mb
242 243 248 252 257 262 264 263 261 259 258 258 257 258 262 265 266 265 263 262 261 263
232 233 237 245 250 253 258 263 266 266 261 258 257 258 261 264 265 268 266 265 264 263
184 190 200 215 234 248 259 268 273 274 272 266 261 259 260 263 266 268 268 268 267 264
192 200 210 225 240 253 263 271 277 279 277 276 272 267 264 264 265 270 273 271 270 268
203 233 253 265 272 275 274 276 278 279 280 279 279 281 279 274 272 277 279 281 279 278
259 271 279 283 286 288 289 287 285 283 277 273 273 276 281 281 281 279 276 279 278 280
279 279 281 283 284 286 288 290 290 291 291 289 280 272 276 284 287 284 280 281 279 279
289 291 291 291 291 291 293 293 293 293 292 292 293 299 302 298 292 286 278 282 277 277
282 285 288 291 292 294 295 295 295 294 295 295 294 288 284 286 285 285 284 283 280 279
289 291 293 293 294 293 293 296 298 298 297 294 294 292 292 287 282 283 284 287 287 285
284 285 286 288 290 289 292 294 294 294 292 291 291 293 290 288 279 279 280 283 288 289
276 277 282 287 291 294 296 297 295 294 295 292 291 288 287 285 281 280 280 282 283 282
300 304 310 311 310 311 309 308 306 305 308 307 304 300 297 291 286 286 284 281 281 278
304 312 312 315 315 317 316 315 311 313 307 310 307 308 301 300 302 298 297 294 289 285